Current weather by "City, St" or "zip code"  
 
Advertise Here

Current Conditions: Altoona - Blair County Airport, PA

Overcast


70.0 F

Last Updated on Sep 16 2021, 11:53 pm EDT
Humidity: 84%
Wind Speed: E 3.5 mph
Barometer 30.23 in
Dewpoint: 64.9 F
Visibility: 10.00 mi
Precip: --
Heat Index: NA
Wind Chill: NA
Current conditions at:

Altoona - Blair County Airport, PA (KAOO)

Lat: 40.29994 Lon: 78.3168

Local Radar Image active severe weather and emergency alerts image image weather storm and storm spotter reports image weather observation monitoring service image
Local
Radar
Active
Alerts
Storm Reports Obs
Monitoring

Sign-up For Email & Text Message Weather Alert Notification Services



Advertise Here

Observation History for Altoona - Blair County Airport, PA


Time Wind
(mph)
Vis
(mi)
Weather Precip (in) Temperature (F) Relative
Humidity
Wind
Chill
(F)
Heat
Index
(F)
Pressure
Air Dwpt altimeter
(in)
sea level
(mb)
Rmks
11:53 pm EDT E 3.5 10.00 Overcast -- 70.0 64.9 84% NA NA 30.23 1023.0
10:53 pm EDT E 5.8 10.00 Partly Cloudy -- 69.0 64.9 87% NA NA 30.23 1022.9
9:53 pm EDT E 5.8 10.00 Mostly Cloudy -- 70.0 64.9 84% NA NA 30.24 1023.3
8:53 pm EDT E 3.5 10.00 Mostly Cloudy -- 69.0 64.9 87% NA NA 30.23 1023.0
7:53 pm EDT N 0.0 10.00 Overcast Trace 70.0 64.0 82% NA NA 30.21 1022.4
6:53 pm EDT NE 3.5 10.00 Overcast -- 72.0 64.0 76% NA NA 30.20 1021.9
5:53 pm EDT NE 3.5 10.00 Overcast -- 72.0 64.0 76% NA NA 30.19 1021.5
4:53 pm EDT E 5.8 10.00 Overcast -- 73.0 63.0 71% NA NA 30.18 1021.1
3:53 pm EDT E 5.8 10.00 Overcast -- 72.0 63.0 73% NA NA 30.19 1021.4
2:53 pm EDT E 6.9 10.00 Overcast -- 71.0 63.0 76% NA NA 30.20 1021.9
1:53 pm EDT 3.5 10.00 Overcast -- 72.0 63.0 73% NA NA 30.22 1022.4
12:53 pm EDT NE 4.6 10.00 Overcast -- 70.0 64.0 82% NA NA 30.22 1022.8
11:53 am EDT 5.8 10.00 Overcast -- 68.0 63.0 84% NA NA 30.22 1022.7
10:53 am EDT NE 5.8 6.00 Fog/Mist Trace 67.0 63.0 87% NA NA 30.22 1022.7
9:53 am EDT NE 4.6 0.75 Fog/Mist -- 66.0 63.0 90% NA NA 30.21 1022.4
8:53 am EDT 3.5 0.25 Fog -- 65.0 63.0 93% NA NA 30.20 1021.8
7:53 am EDT N 0.0 0.25 Fog -- 65.0 62.1 90% NA NA 30.19 1021.5
6:53 am EDT N 4.6 1.25 Fog/Mist -- 64.0 62.1 93% NA NA 30.16 1020.4
5:53 am EDT N 0.0 9.00 Overcast -- 65.0 62.1 90% NA NA 30.14 1019.7
4:53 am EDT N 4.6 6.00 Fog/Mist -- 65.0 62.1 90% NA NA 30.12 1019.1
3:53 am EDT NE 5.8 9.00 Overcast -- 65.0 62.1 90% NA NA 30.11 1018.8
2:53 am EDT NE 4.6 9.00 Overcast 00.03 65.0 62.1 90% NA NA 30.11 1018.9
1:53 am EDT N 3.5 7.00 Light Rain 00.01 66.0 62.1 87% NA NA 30.12 1018.8
12:53 am EDT N 0.0 10.00 Overcast -- 66.0 62.1 87% NA NA 30.12 1018.8

Regional Weather Observation


Johnstown - Cambria County Airport, PA (KJST)

Mostly Cloudy
67.0 F

Bedford, Bedford County Airport, PA (KHMZ)

Mostly Cloudy
65.0 F

Indiana / Stewart Field, PA (KIDI)

NULL
66.0 F

Somerset County Airport, PA (K2G9)

Mostly Cloudy
63.0 F

State College - University Park Airport, PA (KUNV)

Overcast
70.0 F

Latrobe / Westmoreland, PA (KLBE)

Fair
70.0 F
Advertise Here


Advertise Here